This demonstration page uses our WeatherBlox Daily Observations layout. Learn more.

Left ArrowRight Arrow

Hourly Observations for February 10, 2016

Temp ( °F °C ) Dew Point ( °F °C ) Humidity (%) Winds ( mph kmh ) Pressure ( in mb ) Visibility ( mi km ) Precip ( " mm )
12:15 am 00:15 Cloudy 29 -1.4 24 -4.5 80 80 SW 10 17 30.24 1024 10 16 N/A
12:35 am 00:35 Cloudy 30 -1 24 -4.3 79 79 SW 8 13 30.24 1024 10 16 N/A
12:55 am 00:55 Mostly Cloudy 30 -1.3 24 -4.6 79 79 SW 7 11 30.21 1023 10 16 N/A
1:15 am 01:15 Partly Cloudy 28 -2 23 -4.8 81 81 SW 8 13 30.21 1023 10 16 N/A
1:35 am 01:35 Clear 28 -2 23 -4.8 81 81 SW 5 7 30.21 1023 10 16 N/A
1:55 am 01:55 Clear 28 -2.2 23 -5 81 81 SW 8 13 30.18 1022 10 16 N/A
2:15 am 02:15 Clear 28 -2.3 23 -5 82 82 SW 6 9 30.18 1022 10 16 N/A
2:35 am 02:35 Clear 28 -2.3 23 -5 82 82 SW 7 11 30.18 1022 10 16 N/A
2:55 am 02:55 Clear 27 -2.7 23 -5.1 84 84 SW 6 9 30.21 1023 10 16 N/A
3:15 am 03:15 Clear 27 -3 23 -5 86 86 SW 6 9 30.15 1021 10 16 N/A
3:35 am 03:35 Clear 27 -2.6 24 -4.6 86 86 SW 6 9 30.15 1021 10 16 N/A
3:55 am 03:55 Clear 28 -2.3 24 -4.5 85 85 WSW 5 7 30.15 1021 10 16 N/A
4:15 am 04:15 Clear 28 -2 25 -4 86 86 WSW 6 9 30.12 1020 10 16 N/A
4:35 am 04:35 Clear 30 -1.1 26 -3.5 84 84 WSW 9 15 30.12 1020 10 16 N/A
4:55 am 04:55 Clear 30 -1.2 25 -3.8 83 83 W 12 19 30.12 1020 10 16 N/A
5:15 am 05:15 Clear 30 -1 25 -3.7 82 82 W 10 17 30.09 1019 10 16 N/A
5:35 am 05:35 Clear 30 -1 25 -4 80 80 W 12 19 30.09 1019 10 16 N/A
5:55 am 05:55 Clear 31 -0.7 25 -3.8 80 80 W 12 19 30.09 1019 10 16 N/A
6:15 am 06:15 Clear 31 -0.6 25 -4.1 77 77 W 14 22 30.09 1019 10 16 N/A
6:35 am 06:35 Clear 30 -1 24 -4.3 79 79 W 12 19 30.09 1019 10 16 N/A
6:55 am 06:55 Clear 30 -1.2 24 -4.5 79 79 W 14 22 30.09 1019 10 16 N/A
7:15 am 07:15 Clear 29 -1.7 23 -4.8 80 80 W 12 19 30.06 1018 10 16 N/A
7:35 am 07:35 Clear 29 -1.8 23 -4.8 80 80 W 12 19 30.06 1018 10 16 N/A
7:55 am 07:55 Sunny 31 -0.6 24 -4.5 75 75 W 14 22 30.06 1018 10 16 N/A
8:15 am 08:15 Sunny 32 undefined 24 -4.5 72 72 W 15 24 30.03 1017 10 16 N/A
8:35 am 08:35 Sunny 32 0.1 24 -4.4 72 72 W 14 22 30.03 1017 10 16 N/A
8:55 am 08:55 Sunny 34 1 25 -4 70 70 W 15 24 30.03 1017 10 16 N/A
9:15 am 09:15 Sunny 35 1.8 25 -3.7 67 67 W 15 24 30.03 1017 10 16 N/A
9:35 am 09:35 Sunny 37 2.5 26 -3.5 65 65 W 14 22 30.00 1016 10 16 N/A
9:55 am 09:55 Sunny 38 3.2 26 -3.1 64 64 W 14 22 30.00 1016 10 16 N/A
10:15 am 10:15 Sunny 39 4 27 -2.8 62 62 W 13 20 30.00 1016 10 16 N/A
10:35 am 10:35 Sunny 40 4.5 27 -2.6 60 60 W 14 22 30.00 1016 10 16 N/A
10:55 am 10:55 Sunny 41 5.2 28 -2.3 59 59 W 13 20 30.00 1016 10 16 N/A
11:15 am 11:15 Sunny 42 5.8 28 -2 58 58 WNW 9 15 29.97 1015 10 16 N/A
11:35 am 11:35 Sunny 42 5.8 29 -1.5 60 60 W 10 17 29.97 1015 10 16 N/A
11:55 am 11:55 Sunny 44 6.5 30 -1.3 58 58 W 8 13 29.97 1015 10 16 N/A
12:15 pm 12:15 Sunny 46 7.5 31 -0.7 56 56 WNW 5 7 29.94 1014 10 16 N/A
12:35 pm 12:35 Sunny 46 7.9 31 -0.6 55 55 WNW 7 11 29.94 1014 10 16 N/A
12:55 pm 12:55 Sunny 47 8.5 31 -0.8 52 52 WNW 7 11 29.91 1013 10 16 N/A
1:15 pm 13:15 Sunny 47 8.4 30 -1 52 52 W 10 17 29.94 1014 10 16 N/A
1:35 pm 13:35 Sunny 49 9.3 29 -1.4 47 47 W 12 19 29.91 1013 10 16 N/A
1:55 pm 13:55 Sunny 49 9.2 30 -1.3 48 48 W 10 17 29.91 1013 10 16 N/A
2:15 pm 14:15 Sunny 49 9.4 31 -0.7 50 50 W 7 11 29.88 1012 10 16 N/A
2:35 pm 14:35 Sunny 50 10 31 -0.5 48 48 W 8 13 29.88 1012 10 16 N/A
2:55 pm 14:55 Sunny 50 10 31 -0.5 48 48 W 8 13 29.88 1012 10 16 N/A
3:15 pm 15:15 Sunny 50 10.1 32 -0.2 49 49 W 8 13 29.88 1012 10 16 N/A
3:35 pm 15:35 Sunny 50 10 31 -0.5 48 48 W 8 13 29.88 1012 10 16 N/A
3:55 pm 15:55 Sunny 50 10.1 31 -0.3 49 49 W 9 15 29.91 1013 10 16 N/A
4:15 pm 16:15 Sunny 49 9.5 32 -0.2 51 51 W 7 11 29.91 1013 10 16 N/A
4:35 pm 16:35 Sunny 49 9.6 31 -0.5 50 50 W 7 11 29.91 1013 10 16 N/A
4:55 pm 16:55 Sunny 48 9.1 31 -0.3 52 52 W 8 13 29.91 1013 10 16 N/A
5:15 pm 17:15 Sunny 47 8.4 31 -0.5 54 54 W 7 11 29.94 1014 10 16 N/A
5:35 pm 17:35 Sunny 46 7.7 31 -0.3 57 57 W 8 13 29.94 1014 10 16 N/A
5:55 pm 17:55 Sunny 45 7.2 32 -0.2 60 60 WNW 6 9 29.97 1015 10 16 N/A
6:15 pm 18:15 Clear 40 4.6 31 -0.6 69 69 WNW 6 9 30.00 1016 10 16 N/A
6:35 pm 18:35 Clear 41 5 31 -0.5 68 68 WNW 7 11 30.00 1016 10 16 N/A
6:55 pm 18:55 Clear 40 4.3 31 -0.7 70 70 WNW 5 7 30.03 1017 10 16 N/A
7:15 pm 19:15 Clear 40 4.5 31 -0.7 69 69 WNW 3 6 30.03 1017 10 16 N/A
7:35 pm 19:35 Clear 38 3.2 30 -1.1 74 74 WNW 3 6 30.06 1018 10 16 N/A
7:55 pm 19:55 Clear 38 3.5 30 -1 73 73 W 6 9 30.06 1018 10 16 N/A
8:15 pm 20:15 Clear 40 4.5 31 -0.6 70 70 NW 6 9 30.06 1018 10 16 N/A
8:35 pm 20:35 Clear 42 5.6 31 -0.8 64 64 N 13 20 30.09 1019 10 16 N/A
8:55 pm 20:55 Clear 37 3 30 -1.3 74 74 NNE 6 9 30.09 1019 10 16 N/A
9:15 pm 21:15 Clear 38 3.1 30 -1.2 74 74 NNE 8 13 30.15 1021 10 16 N/A
9:35 pm 21:35 Clear 38 3.1 30 -1 75 75 NNE 12 19 30.15 1021 10 16 N/A
9:55 pm 21:55 Clear 37 3 30 -1.2 74 74 NE 12 19 30.15 1021 10 16 N/A
10:15 pm 22:15 Clear 35 1.7 29 -1.5 80 80 NE 12 19 30.15 1021 10 16 N/A
10:35 pm 22:35 Clear 35 1.6 29 -1.5 80 80 NE 16 26 30.18 1022 10 16 N/A
10:55 pm 22:55 Clear 33 0.3 28 -2 85 85 NE 10 17 30.21 1023 10 16 N/A
11:15 pm 23:15 Clear 32 undefined 28 -2 87 87 NE 9 15 30.21 1023 10 16 N/A
11:35 pm 23:35 Clear 32 -0.1 28 -2 87 87 NE 9 15 30.24 1024 10 16 N/A
11:55 pm 23:55 Clear 31 -0.7 28 -2.4 88 88 NNE 7 11 30.24 1024 10 16 N/A

Powered by AerisWeather